QPF
0.03 0.04 0.04 0.05 0.06 0.06 0.05 0.05 0.04 0.03 0.04 0.04 0.03 0.02 0.03 0.03 0.03 0.02 0.03 0.03 0.02 0.02 0.01 0.01 0.00 0.01 0.02 0.02 0.03 0.04 0.05 0.06 0.05 0.05 0.04 0.04 0.04 0.06
0.02 0.02 0.03 0.02 0.04 0.04 0.04 0.04 0.04 0.03 0.03 0.02 0.02 0.02 0.04 0.03 0.03 0.02 0.02 0.02 0.02 0.02 0.01 0.01 0.01 0.01 0.01 0.01 0.01 0.02 0.02 0.03 0.04 0.04 0.04 0.03 0.03 0.04
0.03 0.02 0.02 0.02 0.02 0.03 0.03 0.03 0.03 0.03 0.03 0.03 0.02 0.03 0.03 0.04 0.03 0.03 0.02 0.02 0.02 0.02 0.02 0.02 0.01 0.01 0.01 0.01 0.01 0.01 0.01 0.02 0.04 0.05 0.07 0.06 0.04 0.03
0.04 0.03 0.02 0.02 0.02 0.02 0.03 0.03 0.05 0.04 0.04 0.04 0.03 0.03 0.04 0.04 0.04 0.04 0.02 0.02 0.02 0.01 0.02 0.02 0.02 0.02 0.02 0.01 0.01 0.01 0.01 0.02 0.03 0.05 0.06 0.06 0.05 0.04
0.04 0.04 0.03 0.03 0.03 0.03 0.03 0.04 0.05 0.04 0.04 0.04 0.04 0.04 0.03 0.03 0.04 0.04 0.03 0.03 0.02 0.01 0.01 0.01 0.01 0.01 0.01 0.02 0.01 0.01 0.01 0.02 0.02 0.03 0.04 0.03 0.02 0.02
0.04 0.04 0.04 0.04 0.03 0.03 0.03 0.04 0.04 0.04 0.03 0.03 0.03 0.03 0.03 0.02 0.04 0.04 0.03 0.03 0.02 0.01 0.01 0.01 0.01 0.01 0.01 0.01 0.01 0.02 0.02 0.01 0.01 0.02 0.04 0.04 0.03 0.02
0.03 0.03 0.02 0.02 0.03 0.03 0.03 0.03 0.03 0.03 0.02 0.02 0.02 0.03 0.03 0.03 0.03 0.02 0.02 0.02 0.02 0.01 0.02 0.01 0.01 0.01 0.00 0.00 0.00 0.01 0.01 0.01 0.01 0.02 0.02 0.03 0.03 0.02
0.03 0.03 0.03 0.02 0.02 0.03 0.03 0.03 0.03 0.03 0.03 0.03 0.03 0.03 0.03 0.03 0.03 0.02 0.01 0.01 0.01 0.01 0.02 0.02 0.02 0.01 0.01 0.00 0.00 0.00 0.01 0.01 0.01 0.01 0.01 0.02 0.03 0.03
0.04 0.04 0.05 0.04 0.04 0.04 0.03 0.02 0.02 0.01 0.02 0.03 0.04 0.04 0.04 0.04 0.03 0.03 0.03 0.02 0.02 0.01 0.02 0.01 0.01 0.01 0.01 0.01 0.00 0.00 0.01 0.01 0.01 0.01 0.01 0.01 0.02 0.02
0.05 0.05 0.05 0.05 0.04 0.05 0.04 0.03 0.02 0.01 0.01 0.02 0.02 0.03 0.03 0.04 0.04 0.03 0.03 0.02 0.02 0.02 0.02 0.01 0.02 0.01 0.01 0.02 0.01 0.01 0.01 0.01 0.01 0.01 0.00 0.01 0.01 0.02
0.04 0.05 0.05 0.05 0.05 0.05 0.04 0.04 0.04 0.03 0.02 0.02 0.02 0.02 0.02 0.02 0.03 0.03 0.03 0.02 0.01 0.01 0.02 0.01 0.02 0.02 0.02 0.02 0.02 0.02 0.02 0.01 0.01 0.01 0.01 0.01 0.01 0.01
0.03 0.03 0.04 0.04 0.04 0.04 0.03 0.03 0.04 0.04 0.03 0.03 0.03 0.03 0.02 0.02 0.02 0.03 0.04 0.03 0.02 0.01 0.02 0.02 0.01 0.02 0.02 0.01 0.01 0.01 0.01 0.01 0.01 0.00 0.00 0.01 0.01 0.01
0.03 0.03 0.03 0.03 0.03 0.04 0.03 0.03 0.05 0.05 0.05 0.05 0.06 0.05 0.04 0.03 0.02 0.02 0.02 0.02 0.02 0.02 0.02 0.03 0.02 0.02 0.01 0.02 0.02 0.01 0.01 0.01 0.01 0.00 0.01 0.01 0.01 0.01
0.03 0.04 0.04 0.03 0.03 0.03 0.03 0.04 0.05 0.05 0.05 0.05 0.05 0.04 0.04 0.03 0.03 0.02 0.02 0.01 0.02 0.03 0.03 0.03 0.02 0.03 0.02 0.02 0.02 0.02 0.02 0.02 0.02 0.02 0.01 0.01 0.01 0.01
0.05 0.04 0.03 0.02 0.02 0.02 0.02 0.02 0.03 0.03 0.04 0.04 0.04 0.03 0.03 0.03 0.03 0.03 0.02 0.02 0.02 0.02 0.03 0.04 0.03 0.03 0.03 0.03 0.03 0.03 0.03 0.03 0.03 0.02 0.02 0.02 0.02 0.02
0.03 0.02 0.02 0.02 0.01 0.01 0.01 0.01 0.01 0.02 0.03 0.02 0.02 0.02 0.02 0.03 0.03 0.03 0.03 0.02 0.02 0.02 0.03 0.04 0.04 0.04 0.04 0.04 0.04 0.04 0.03 0.02 0.02 0.02 0.02 0.02 0.03 0.03
0.02 0.03 0.02 0.02 0.02 0.01 0.02 0.02 0.02 0.02 0.02 0.02 0.02 0.02 0.03 0.03 0.03 0.02 0.02 0.02 0.03 0.03 0.03 0.03 0.03 0.03 0.03 0.03 0.03 0.03 0.03 0.03 0.03 0.03 0.03 0.03 0.03 0.03
0.04 0.02 0.02 0.02 0.02 0.02 0.03 0.03 0.03 0.03 0.03 0.04 0.04 0.03 0.03 0.02 0.02 0.02 0.02 0.03 0.03 0.03 0.02 0.02 0.03 0.03 0.03 0.02 0.03 0.03 0.03 0.03 0.03 0.03 0.02 0.03 0.03 0.03
0.04 0.03 0.02 0.02 0.02 0.03 0.03 0.04 0.04 0.04 0.04 0.03 0.03 0.02 0.02 0.02 0.03 0.04 0.04 0.04 0.04 0.03 0.03 0.03 0.03 0.04 0.03 0.03 0.03 0.03 0.03 0.03 0.03 0.02 0.02 0.02 0.03 0.04
0.03 0.03 0.03 0.03 0.02 0.03 0.03 0.03 0.03 0.03 0.03 0.03 0.03 0.03 0.04 0.05 0.05 0.05 0.05 0.03 0.03 0.03 0.04 0.05 0.05 0.05 0.04 0.03 0.03 0.03 0.03 0.03 0.03 0.02 0.02 0.02 0.03 0.05
0.04 0.03 0.03 0.03 0.03 0.02 0.02 0.02 0.02 0.03 0.03 0.04 0.05 0.05 0.05 0.05 0.04 0.04 0.03 0.02 0.02 0.03 0.03 0.04 0.05 0.04 0.05 0.05 0.04 0.04 0.03 0.03 0.03 0.03 0.02 0.02 0.03 0.04
0.04 0.04 0.03 0.03 0.03 0.02 0.02 0.03 0.03 0.03 0.03 0.04 0.05 0.05 0.04 0.04 0.03 0.03 0.03 0.02 0.02 0.02 0.02 0.03 0.04 0.04 0.04 0.04 0.05 0.05 0.06 0.06 0.05 0.03 0.03 0.03 0.02 0.02
0.05 0.04 0.04 0.04 0.04 0.03 0.03 0.03 0.03 0.03 0.03 0.04 0.04 0.03 0.03 0.04 0.03 0.02 0.02 0.01 0.01 0.02 0.02 0.02 0.02 0.02 0.03 0.03 0.03 0.03 0.05 0.07 0.07 0.06 0.04 0.04 0.04 0.03
MSLP
1008.74 1009.05 1009.38 1009.70 1010.00 1010.26 1010.46 1010.60 1010.67 1010.69 1010.67 1010.64 1010.63 1010.66 1010.75 1010.93 1011.21 1011.57 1012.03 1012.54 1013.09 1013.65 1014.19 1014.70 1015.16 1015.58 1015.94 1016.27 1016.57 1016.86 1017.14 1017.41 1017.66 1017.89 1018.09 1018.24 1018.36 1018.43
1007.76 1008.05 1008.37 1008.71 1009.04 1009.37 1009.66 1009.91 1010.10 1010.24 1010.34 1010.40 1010.45 1010.51 1010.61 1010.78 1011.02 1011.35 1011.75 1012.23 1012.76 1013.31 1013.86 1014.39 1014.88 1015.33 1015.73 1016.08 1016.40 1016.69 1016.95 1017.20 1017.43 1017.63 1017.81 1017.95 1018.06 1018.14
1006.81 1007.08 1007.39 1007.73 1008.10 1008.48 1008.84 1009.19 1009.50 1009.76 1009.97 1010.13 1010.26 1010.37 1010.50 1010.66 1010.88 1011.16 1011.52 1011.95 1012.43 1012.96 1013.50 1014.03 1014.54 1015.00 1015.43 1015.81 1016.14 1016.43 1016.68 1016.90 1017.09 1017.26 1017.40 1017.51 1017.60 1017.68
1005.86 1006.12 1006.43 1006.78 1007.17 1007.59 1008.03 1008.46 1008.87 1009.24 1009.55 1009.82 1010.03 1010.21 1010.37 1010.55 1010.75 1011.01 1011.32 1011.70 1012.14 1012.62 1013.14 1013.66 1014.17 1014.65 1015.10 1015.49 1015.84 1016.13 1016.37 1016.56 1016.71 1016.83 1016.92 1017.00 1017.06 1017.13
1004.88 1005.14 1005.46 1005.84 1006.26 1006.72 1007.22 1007.72 1008.21 1008.67 1009.08 1009.43 1009.73 1009.97 1010.19 1010.39 1010.60 1010.85 1011.13 1011.48 1011.88 1012.33 1012.82 1013.32 1013.83 1014.33 1014.79 1015.20 1015.56 1015.85 1016.08 1016.25 1016.37 1016.44 1016.48 1016.51 1016.54 1016.58
1003.84 1004.14 1004.49 1004.90 1005.36 1005.87 1006.42 1006.98 1007.53 1008.06 1008.54 1008.97 1009.34 1009.65 1009.92 1010.17 1010.41 1010.66 1010.94 1011.27 1011.65 1012.08 1012.55 1013.05 1013.56 1014.06 1014.54 1014.97 1015.34 1015.65 1015.88 1016.03 1016.12 1016.15 1016.15 1016.13 1016.12 1016.14
1002.77 1003.11 1003.52 1003.98 1004.50 1005.06 1005.65 1006.25 1006.85 1007.43 1007.96 1008.45 1008.88 1009.25 1009.58 1009.88 1010.16 1010.45 1010.75 1011.08 1011.46 1011.88 1012.35 1012.84 1013.36 1013.87 1014.37 1014.82 1015.22 1015.54 1015.78 1015.93 1016.00 1016.00 1015.96 1015.90 1015.86 1015.84
1001.74 1002.14 1002.61 1003.14 1003.72 1004.34 1004.97 1005.61 1006.24 1006.84 1007.41 1007.93 1008.41 1008.83 1009.22 1009.57 1009.90 1010.23 1010.57 1010.93 1011.32 1011.75 1012.22 1012.71 1013.23 1013.76 1014.27 1014.75 1015.17 1015.51 1015.76 1015.92 1016.00 1015.99 1015.93 1015.84 1015.76 1015.71
1000.88 1001.34 1001.88 1002.48 1003.13 1003.80 1004.47 1005.14 1005.79 1006.40 1006.98 1007.52 1008.01 1008.47 1008.90 1009.30 1009.69 1010.06 1010.44 1010.83 1011.25 1011.69 1012.15 1012.65 1013.17 1013.70 1014.22 1014.71 1015.15 1015.52 1015.79 1015.97 1016.05 1016.05 1015.98 1015.88 1015.77 1015.70
1000.33 1000.85 1001.46 1002.13 1002.84 1003.55 1004.26 1004.95 1005.60 1006.21 1006.78 1007.31 1007.82 1008.29 1008.74 1009.18 1009.60 1010.01 1010.42 1010.84 1011.26 1011.71 1012.17 1012.65 1013.15 1013.67 1014.18 1014.67 1015.12 1015.50 1015.80 1016.00 1016.10 1016.11 1016.05 1015.94 1015.82 1015.73
1000.26 1000.81 1001.47 1002.19 1002.95 1003.70 1004.43 1005.12 1005.76 1006.35 1006.90 1007.41 1007.90 1008.36 1008.82 1009.26 1009.70 1010.13 1010.56 1010.98 1011.40 1011.82 1012.26 1012.70 1013.17 1013.65 1014.14 1014.61 1015.05 1015.43 1015.73 1015.95 1016.07 1016.10 1016.06 1015.96 1015.84 1015.74
1000.73 1001.30 1001.98 1002.73 1003.51 1004.28 1005.01 1005.69 1006.31 1006.87 1007.38 1007.85 1008.30 1008.74 1009.17 1009.60 1010.03 1010.45 1010.86 1011.26 1011.65 1012.04 1012.42 1012.82 1013.23 1013.65 1014.08 1014.51 1014.92 1015.28 1015.59 1015.81 1015.95 1016.00 1015.98 1015.90 1015.80 1015.70
1001.76 1002.32 1002.99 1003.73 1004.51 1005.26 1005.98 1006.63 1007.20 1007.72 1008.18 1008.60 1009.00 1009.39 1009.78 1010.17 1010.57 1010.95 1011.33 1011.69 1012.03 1012.36 1012.68 1013.00 1013.33 1013.68 1014.04 1014.41 1014.77 1015.10 1015.38 1015.61 1015.75 1015.83 1015.83 1015.78 1015.70 1015.62
1003.25 1003.76 1004.39 1005.10 1005.84 1006.56 1007.22 1007.83 1008.35 1008.81 1009.21 1009.57 1009.90 1010.24 1010.57 1010.91 1011.26 1011.59 1011.92 1012.22 1012.50 1012.76 1013.01 1013.25 1013.50 1013.77 1014.05 1014.34 1014.64 1014.93 1015.19 1015.40 1015.55 1015.63 1015.66 1015.64 1015.59 1015.54
1005.01 1005.46 1006.03 1006.67 1007.34 1008.00 1008.60 1009.14 1009.60 1009.99 1010.32 1010.61 1010.89 1011.16 1011.44 1011.72 1012.01 1012.30 1012.57 1012.81 1013.03 1013.23 1013.41 1013.58 1013.75 1013.94 1014.15 1014.37 1014.61 1014.85 1015.07 1015.26 1015.41 1015.50 1015.55 1015.56 1015.55 1015.54
1006.85 1007.22 1007.71 1008.26 1008.85 1009.42 1009.94 1010.40 1010.79 1011.11 1011.38 1011.61 1011.83 1012.04 1012.27 1012.50 1012.74 1012.98 1013.20 1013.41 1013.58 1013.73 1013.86 1013.97 1014.09 1014.22 1014.36 1014.53 1014.72 1014.91 1015.09 1015.26 1015.39 1015.49 1015.55 1015.59 1015.61 1015.63
1008.56 1008.86 1009.25 1009.71 1010.20 1010.67 1011.10 1011.48 1011.80 1012.05 1012.26 1012.45 1012.62 1012.79 1012.97 1013.17 1013.38 1013.59 1013.79 1013.97 1014.12 1014.24 1014.34 1014.43 1014.51 1014.60 1014.70 1014.83 1014.97 1015.12 1015.26 1015.40 1015.52 1015.61 1015.68 1015.73 1015.77 1015.82
1010.01 1010.23 1010.55 1010.91 1011.30 1011.68 1012.03 1012.33 1012.57 1012.78 1012.94 1013.09 1013.22 1013.37 1013.54 1013.72 1013.91 1014.11 1014.30 1014.47 1014.62 1014.74 1014.84 1014.92 1014.99 1015.06 1015.14 1015.23 1015.34 1015.45 1015.56 1015.67 1015.76 1015.83 1015.89 1015.93 1015.98 1016.04
1011.16 1011.33 1011.57 1011.85 1012.16 1012.45 1012.73 1012.96 1013.16 1013.32 1013.45 1013.57 1013.69 1013.83 1013.99 1014.16 1014.36 1014.56 1014.75 1014.94 1015.09 1015.23 1015.33 1015.42 1015.49 1015.55 1015.61 1015.68 1015.75 1015.83 1015.90 1015.96 1016.02 1016.06 1016.09 1016.12 1016.15 1016.20
1012.05 1012.19 1012.37 1012.60 1012.83 1013.07 1013.28 1013.47 1013.63 1013.76 1013.88 1013.99 1014.11 1014.24 1014.40 1014.58 1014.78 1014.98 1015.19 1015.38 1015.55 1015.69 1015.80 1015.89 1015.96 1016.01 1016.05 1016.09 1016.13 1016.16 1016.18 1016.19 1016.20 1016.19 1016.18 1016.17 1016.17 1016.19
1012.78 1012.90 1013.05 1013.24 1013.43 1013.62 1013.80 1013.96 1014.09 1014.21 1014.32 1014.43 1014.55 1014.69 1014.85 1015.03 1015.23 1015.43 1015.63 1015.82 1015.99 1016.12 1016.23 1016.31 1016.36 1016.39 1016.40 1016.39 1016.38 1016.35 1016.32 1016.27 1016.21 1016.15 1016.08 1016.02 1015.97 1015.94
1013.42 1013.54 1013.69 1013.86 1014.03 1014.20 1014.36 1014.51 1014.64 1014.76 1014.87 1014.98 1015.10 1015.23 1015.39 1015.55 1015.73 1015.92 1016.10 1016.26 1016.40 1016.52 1016.59 1016.64 1016.65 1016.64 1016.60 1016.53 1016.46 1016.36 1016.25 1016.14 1016.01 1015.88 1015.75 1015.62 1015.52 1015.43
1014.04 1014.18 1014.34 1014.51 1014.68 1014.85 1015.02 1015.16 1015.30 1015.42 1015.53 1015.64 1015.75 1015.87 1016.00 1016.14 1016.28 1016.43 1016.56 1016.68 1016.77 1016.83 1016.86 1016.85 1016.80 1016.72 1016.61 1016.48 1016.33 1016.16 1015.98 1015.79 1015.59 1015.39 1015.20 1015.02 1014.86 1014.72
Thickness
5745 5742 5741 5741 5739 5738 5735 5732 5727 5724 5725 5728 5728 5728 5726 5724 5721 5721 5720 5717 5716 5715 5714 5713 5712 5711 5710 5709 5708 5707 5706 5706 5705 5704 5704 5703 5701 5700
5741 5739 5737 5738 5737 5735 5733 5731 5729 5725 5722 5726 5724 5725 5722 5722 5719 5718 5718 5715 5714 5712 5711 5710 5709 5708 5707 5706 5705 5704 5702 5702 5701 5700 5700 5699 5697 5696
5738 5736 5734 5733 5734 5733 5731 5729 5727 5724 5719 5721 5722 5721 5717 5717 5716 5715 5716 5715 5714 5710 5708 5707 5706 5705 5704 5702 5701 5701 5700 5699 5698 5697 5696 5695 5694 5693
5734 5732 5731 5731 5728 5728 5726 5725 5723 5721 5718 5715 5716 5716 5714 5714 5713 5712 5714 5714 5713 5709 5706 5704 5703 5702 5700 5699 5698 5697 5696 5695 5694 5693 5692 5691 5690 5689
5731 5729 5727 5726 5724 5723 5721 5721 5720 5720 5717 5714 5713 5712 5712 5712 5709 5709 5710 5708 5710 5707 5704 5702 5700 5699 5698 5696 5695 5694 5693 5691 5690 5689 5688 5687 5686 5686
5727 5725 5724 5722 5720 5719 5718 5716 5715 5714 5712 5711 5709 5709 5708 5707 5705 5704 5704 5704 5704 5705 5702 5700 5698 5696 5695 5693 5692 5690 5689 5688 5686 5685 5684 5683 5682 5681
5723 5722 5721 5718 5716 5715 5715 5713 5711 5709 5708 5707 5706 5705 5704 5701 5700 5700 5699 5698 5698 5700 5698 5698 5697 5695 5694 5691 5689 5686 5684 5683 5682 5680 5679 5678 5677 5676
5718 5718 5717 5714 5712 5708 5707 5706 5704 5703 5703 5701 5701 5699 5696 5696 5695 5694 5693 5692 5691 5694 5691 5692 5693 5692 5691 5690 5686 5683 5680 5678 5677 5675 5674 5673 5673 5672
5714 5713 5714 5715 5709 5708 5704 5700 5699 5697 5695 5695 5695 5693 5693 5692 5689 5688 5686 5685 5684 5687 5685 5685 5687 5686 5686 5685 5680 5678 5675 5673 5672 5670 5669 5668 5668 5667
5709 5708 5707 5707 5705 5702 5700 5699 5697 5696 5692 5691 5691 5690 5689 5687 5684 5682 5681 5680 5680 5680 5679 5677 5679 5679 5680 5678 5674 5672 5670 5668 5666 5665 5664 5663 5662 5661
5705 5704 5702 5701 5697 5693 5693 5693 5692 5692 5689 5686 5683 5682 5679 5677 5676 5676 5675 5674 5674 5675 5674 5671 5672 5672 5672 5672 5670 5666 5664 5662 5660 5659 5658 5657 5656 5656
5700 5699 5695 5693 5690 5686 5687 5687 5686 5686 5686 5683 5678 5675 5674 5672 5668 5668 5669 5669 5669 5668 5669 5664 5664 5664 5663 5665 5664 5660 5658 5655 5654 5653 5652 5651 5650 5650
5695 5694 5693 5686 5682 5679 5678 5680 5680 5678 5679 5677 5676 5674 5672 5669 5667 5664 5663 5662 5662 5662 5662 5657 5656 5656 5654 5654 5655 5654 5653 5651 5649 5648 5646 5645 5643 5643
5687 5688 5686 5678 5675 5672 5672 5671 5669 5668 5673 5672 5670 5668 5667 5665 5663 5660 5656 5655 5653 5652 5651 5648 5647 5645 5645 5644 5645 5646 5645 5643 5643 5643 5642 5639 5637 5636
5680 5677 5674 5669 5667 5666 5664 5662 5661 5664 5666 5665 5664 5662 5661 5659 5656 5652 5649 5647 5644 5643 5642 5639 5638 5638 5636 5635 5636 5636 5635 5635 5635 5635 5635 5634 5633 5632
5670 5668 5664 5662 5660 5660 5659 5657 5657 5658 5658 5657 5656 5655 5652 5650 5647 5645 5643 5641 5639 5637 5636 5633 5630 5628 5628 5627 5627 5627 5627 5627 5628 5627 5626 5626 5626 5626
5662 5661 5661 5660 5658 5657 5656 5655 5652 5650 5648 5648 5647 5645 5643 5642 5640 5638 5636 5634 5632 5630 5629 5626 5624 5621 5620 5620 5619 5620 5619 5619 5619 5617 5615 5617 5619 5619
5651 5654 5653 5653 5652 5651 5649 5647 5645 5643 5641 5640 5638 5637 5635 5633 5632 5631 5629 5626 5624 5622 5621 5619 5616 5614 5614 5615 5611 5611 5611 5610 5610 5608 5607 5608 5610 5611
5644 5647 5647 5646 5646 5645 5643 5641 5639 5636 5633 5632 5630 5628 5627 5625 5623 5622 5620 5618 5616 5614 5613 5611 5609 5607 5606 5607 5607 5603 5602 5601 5600 5600 5600 5600 5601 5601
5641 5642 5641 5640 5639 5637 5636 5634 5631 5629 5626 5624 5622 5621 5619 5617 5615 5614 5612 5610 5608 5606 5604 5603 5602 5600 5598 5598 5597 5596 5593 5593 5592 5592 5592 5593 5593 5592
5637 5636 5635 5634 5632 5629 5627 5624 5622 5620 5618 5616 5616 5613 5612 5610 5608 5606 5604 5599 5598 5598 5597 5596 5594 5589 5589 5588 5588 5589 5589 5585 5584 5582 5582 5582 5584 5585
5631 5631 5629 5626 5624 5621 5618 5615 5613 5612 5610 5609 5608 5607 5605 5603 5601 5598 5596 5595 5593 5591 5590 5589 5586 5584 5583 5582 5582 5581 5580 5579 5577 5575 5573 5573 5574 5575
5623 5622 5621 5619 5616 5613 5610 5608 5606 5604 5603 5602 5600 5598 5598 5596 5594 5592 5590 5588 5585 5584 5582 5581 5579 5578 5577 5576 5575 5574 5573 5571 5571 5570 5569 5567 5565 5564